Dewpoint
20 19 21 20 22 21 19 19 17 18 16 14 14 15 16 17 19 19 21 23 26 25 37 39 40 47 50 54 57 57 57 58 60 60 63 62 63 65 68 70 70 70 69 69
23 21 22 23 22 21 21 20 19 19 19 15 16 15 17 17 17 19 21 22 24 38 41 43 45 48 50 50 54 56 59 59 59 59 61 59 60 60 64 64 66 68 69 68
21 21 24 23 22 21 20 18 18 17 20 22 19 16 21 18 23 22 25 27 33 39 41 44 46 49 51 53 55 54 53 53 54 55 54 54 55 55 55 57 59 60 62 64
21 22 21 21 22 23 19 21 20 19 18 11 21 11 19 23 25 30 32 31 35 39 42 43 46 48 49 49 49 50 52 52 52 52 50 50 48 48 51 56 58 59 59 60
21 23 22 20 20 22 20 23 22 24 20 18 18 14 15 25 25 29 32 36 38 39 40 43 45 47 49 49 48 50 52 52 53 52 52 51 52 52 53 55 55 55 56 58
24 26 23 22 22 23 25 23 22 24 20 16 17 16 16 20 22 31 34 35 36 38 41 42 43 46 48 49 47 47 50 48 50 52 52 52 51 50 50 51 52 52 54 55
22 21 22 22 21 26 21 19 17 16 16 15 23 20 18 27 28 30 33 34 36 39 39 39 39 40 43 45 42 44 44 45 46 47 48 48 49 50 50 51 51 52 52 54
20 18 25 28 25 22 21 19 19 14 17 16 26 23 25 31 32 32 34 34 36 37 36 34 36 34 34 40 43 43 43 43 44 44 44 45 45 46 47 49 49 50 53 55
21 22 30 32 29 26 25 24 24 25 25 22 23 25 28 32 32 33 33 33 34 32 31 32 35 39 41 42 43 42 41 42 43 43 44 44 44 45 45 47 49 50 52 51
23 25 31 32 32 32 26 28 25 25 22 20 22 24 25 29 30 32 32 31 31 32 35 39 40 41 42 42 42 42 43 42 43 43 43 43 43 44 45 46 46 47 48 50
28 27 27 30 29 29 29 27 29 29 28 23 22 23 28 29 30 29 25 28 29 34 36 37 39 40 40 40 41 41 41 42 42 42 42 42 42 43 43 44 45 46 47 48
36 29 27 28 33 34 32 29 28 28 26 28 26 24 30 29 28 27 30 32 33 35 35 36 37 38 38 38 39 41 42 41 41 41 41 41 42 42 41 42 43 45 46 46
39 31 28 28 27 33 31 32 30 30 30 28 25 26 31 30 30 31 30 33 34 35 35 35 35 36 37 38 39 40 40 40 40 40 39 40 41 41 41 42 43 43 44 44
37 32 29 27 26 32 33 35 34 30 27 27 28 28 30 32 31 31 32 34 34 34 36 36 36 36 37 39 39 39 39 39 39 39 39 40 40 40 41 42 41 42 43 43
32 30 32 32 33 33 32 32 34 34 35 30 31 28 28 30 31 31 34 35 34 35 36 36 36 37 39 39 39 39 39 39 40 40 39 40 39 40 40 40 41 41 43 43
35 31 31 29 31 30 29 30 32 33 34 34 35 32 33 32 34 34 34 34 35 36 36 36 37 39 38 38 39 39 39 39 39 39 38 39 39 39 40 40 41 41 41 41
32 31 29 28 33 31 27 30 30 31 33 34 34 36 31 33 34 34 34 35 36 36 36 37 38 38 38 39 39 38 38 38 37 37 37 38 39 39 39 39 40 40 40 40
32 30 28 27 29 22 26 31 32 31 34 33 34 33 31 32 34 34 35 36 36 36 37 37 38 38 39 39 38 37 37 37 37 36 37 38 38 38 38 39 39 39 40 40
35 32 31 27 26 27 27 36 35 32 33 34 32 33 33 34 35 35 37 37 37 37 38 38 38 38 38 37 37 37 37 37 37 37 37 38 37 37 38 38 39 39 39 40
35 34 29 32 27 23 28 36 39 37 30 34 34 34 33 32 32 30 36 36 36 37 37 37 37 37 36 36 37 37 36 37 36 37 37 38 37 37 38 39 39 40 40 41
32 34 32 30 23 27 32 37 40 27 28 35 35 36 36 35 36 36 36 36 36 36 36 36 36 36 36 37 37 37 36 36 36 37 37 38 38 38 38 39 40 42 44 43
32 32 32 32 26 24 39 40 33 34 36 35 35 35 35 36 35 35 35 35 36 36 35 37 37 37 37 37 36 36 35 36 36 37 37 37 38 39 39 41 43 44 43 41
33 33 29 31 29 33 41 38 41 38 35 35 34 36 36 35 34 35 35 35 35 36 36 37 36 36 36 35 36 35 35 36 36 36 37 37 38 39 41 41 42 43 42 42
39 42 36 36 36 38 41 41 41 37 35 37 37 37 36 34 35 35 35 35 35 36 36 36 36 35 35 35 35 35 35 36 36 36 36 37 38 39 41 42 44 43 42 41
37 41 39 37 39 42 42 43 40 37 37 36 36 35 35 35 35 34 34 34 35 35 36 37 37 36 36 35 35 34 35 36 35 35 36 37 39 40 41 42 44 43 43 42
34 33 34 32 38 38 38 43 38 36 36 36 35 35 35 35 34 35 34 34 34 35 36 36 37 36 34 34 34 34 34 35 35 35 36 37 38 39 41 43 44 41 40 39
Lifted_Index
5 5 4 4 4 4 3 2 2 1 0 0 1 1 2 2 2 2 2 2 2 2 3 4 4 2 0 -2 -3 -4 -5 -5 -5 -5 -4 -3 -3 -3 -3 -3 -4 -4 -5 -5
5 4 4 4 4 4 3 2 2 1 0 0 0 1 1 2 2 2 3 3 2 2 3 4 4 2 1 -1 -2 -3 -3 -3 -2 -2 -1 0 1 1 0 -0 -1 -2 -2 -2
4 4 4 4 4 4 3 2 1 1 0 0 0 0 1 1 1 2 2 2 2 2 3 3 3 2 1 0 -0 -1 -0 0 1 2 3 3 4 4 4 4 3 2 2 2
4 4 3 4 3 3 3 2 2 1 1 1 1 1 1 1 1 1 2 2 2 2 2 2 2 2 1 1 1 2 2 3 3 4 4 5 5 6 6 6 5 5 4 4
4 3 3 3 3 3 3 2 2 2 1 1 1 2 1 1 1 1 2 2 2 2 2 2 2 2 2 2 3 4 4 4 4 5 5 5 6 7 7 6 6 6 6 6
3 3 3 2 2 3 2 2 2 2 1 1 2 2 2 2 2 2 2 2 2 2 2 2 2 2 3 3 4 5 5 5 5 5 5 6 6 6 7 7 7 7 7 7
2 2 2 2 2 2 2 2 1 1 1 1 2 2 2 2 2 2 2 2 2 2 2 2 2 3 3 4 5 5 5 5 5 5 6 6 6 7 7 7 7 7 7 7
2 2 1 1 1 1 1 1 1 1 0 1 1 2 2 2 2 1 1 1 1 1 2 2 3 4 4 4 4 5 5 5 6 6 6 7 7 8 8 8 8 8 8 8
1 1 0 -0 -0 -0 0 1 1 1 1 1 1 1 1 1 1 1 1 1 2 2 3 3 4 4 4 4 4 5 5 5 6 6 7 7 8 8 9 9 9 9 9 8
1 1 0 -0 -1 -1 -0 -0 0 0 0 1 1 1 1 1 1 1 1 2 2 3 3 4 4 4 4 4 4 5 5 5 6 6 6 7 8 9 10 10 10 10 9 9
1 1 0 -0 -0 -1 -1 -0 -0 -0 -0 0 1 1 1 1 1 1 2 2 3 3 3 3 4 4 4 4 4 5 5 5 6 6 7 8 9 10 11 10 10 9 9 9
1 0 0 -0 -0 -0 -0 -0 -0 -0 -0 0 0 1 1 1 1 1 2 2 2 2 3 3 4 4 4 4 5 5 5 6 7 8 8 10 11 11 11 10 9 9 9 9
-0 -0 -0 -0 -0 0 -0 -0 0 0 0 1 1 1 1 0 1 1 1 2 2 2 2 3 4 4 4 5 5 6 6 7 9 10 11 11 11 11 9 9 9 9 10 11
-0 -0 0 0 0 0 0 1 1 1 1 2 2 1 1 1 1 1 1 2 2 2 2 3 3 4 4 5 6 7 8 10 11 11 11 11 10 9 9 9 10 11 12 13
0 1 1 1 1 1 1 2 2 2 2 2 2 2 2 1 1 1 1 2 2 2 3 3 3 4 5 6 7 9 10 11 11 11 10 9 9 9 9 10 11 13 14 14
1 1 2 2 2 2 2 3 3 3 3 3 3 2 2 1 1 1 1 2 2 2 3 3 4 5 6 8 9 10 10 10 10 9 8 9 9 10 10 12 13 14 15 15
2 2 2 2 3 3 3 3 4 4 4 3 3 2 2 1 1 1 1 2 2 3 3 4 5 7 8 9 10 10 10 9 8 8 8 9 10 11 12 13 14 14 14 15
2 2 2 3 3 3 3 4 4 4 3 3 2 2 1 1 1 1 2 2 3 3 4 6 7 8 9 10 10 9 8 8 8 8 9 10 11 12 13 13 13 14 14 14
3 3 3 3 2 3 3 3 3 3 2 2 2 1 1 1 1 1 2 3 4 5 6 8 9 9 9 9 8 8 7 7 7 8 9 11 12 13 13 13 13 13 13 14
3 3 3 3 2 3 3 3 2 2 2 1 1 1 1 1 1 2 3 4 5 7 8 8 8 8 8 8 7 7 7 7 8 8 10 12 13 13 12 12 12 13 13 13
3 3 3 3 2 2 3 2 2 2 2 2 1 1 1 2 2 3 4 6 7 8 8 8 7 7 7 7 7 7 7 7 8 9 11 12 13 12 12 11 12 12 13 13
3 3 3 3 2 2 2 2 1 1 2 2 1 1 2 2 3 5 6 7 8 7 7 7 6 6 7 8 8 7 7 8 9 10 12 12 12 12 11 11 11 11 12 12
2 2 2 2 2 2 1 1 1 1 1 1 1 2 2 3 4 5 7 8 7 7 7 7 6 6 7 8 9 8 8 9 9 10 12 12 12 11 10 10 10 10 11 12
2 2 2 2 2 2 1 1 1 1 1 1 2 2 3 3 4 6 7 8 7 7 7 7 6 6 7 8 9 9 9 9 9 10 11 11 11 10 9 8 9 10 11 11
2 2 2 2 2 2 1 1 1 1 1 2 3 3 4 5 6 7 8 8 8 8 8 8 7 7 8 8 9 10 10 9 9 9 10 11 10 9 8 7 8 9 11 11
3 3 3 2 2 2 1 1 1 1 2 2 3 4 5 6 7 9 9 8 9 9 9 8 8 8 8 8 9 10 10 10 9 9 10 10 10 8 7 7 7 9 11 11